Regional Weather Roundup
Issued by NWS Newport/Morehead, NC

Current Version | Previous Version | Graphics & Text | Print | Product List | Glossary Off
Versions: 1 2 3 4 5 6 7 8 9 10 11 12 13 14 15 16 17 18 19 20 21 22 23 24 25 26 27 28 29 30 31 32 33 34 35 36 37 38 39 40 41 42 43 44 45 46 47 48 49 50

000
ASUS42 KMHX 011210
RWRMHX
WEATHER ROUNDUP FOR EASTERN NORTH CAROLINA
NATIONAL WEATHER SERVICE NEWPORT/MOREHEAD CITY NC
800 AM EDT FRI AUG 01 2014

NOTE: "FAIR" INDICATES FEW OR NO CLOUDS BELOW 12,000 FEET
WITH NO SIGNIFICANT WEATHER AND/OR OBSTRUCTIONS TO VISIBILITY

NCZ015>017-031-032-045>047-102-103-011300-
NORTH COAST

CITY           SKY/WX    TMP DP  RH WIND       PRES   REMARKS
EDENTON        CLOUDY    72  70  94 CALM      30.12R
ELIZABETH CITY CLOUDY    75  69  81 NE10      30.12F
KITTY HAWK     CLOUDY    76  69  79 E5        30.12R
MANTEO         NOT AVBL

$$

NCZ045>047-081-094-103-104-011300-
CENTRAL COAST

CITY           SKY/WX    TMP DP  RH WIND       PRES   REMARKS
FRISCO         CLOUDY    80  74  81 E6        30.09F
SWANQUARTER      N/A     75 N/A N/A NE3G9     30.06S

$$

NCZ095-097-098-100-101-011300-
SOUTHERN COAST

CITY           SKY/WX    TMP DP  RH WIND       PRES   REMARKS
BEAUFORT       HVY RAIN  77  75  93 N9        30.08R FOG
CEDAR ISLAND     N/A     79 N/A N/A NE10G18   30.12S
JACKSONVILLE   LGT RAIN  74  73  97 E9        30.08R FOG
NEWPORT        NOT AVBL
PINEY ISLAND   LGT RAIN  81  76  84 E10       30.08R
WILMINGTON     CLOUDY    74  72  93 NE3       30.06R


$$

NCZ011>013-027>030-043-044-078>080-089-090>093-098-011300-
COASTAL PLAIN

CITY           SKY/WX    TMP DP  RH WIND       PRES   REMARKS
AHOSKIE        CLOUDY    70  66  89 CALM      30.14R
CLINTON        HVY RAIN  72  71  98 NE5       30.09R
ELIZABETHTOWN  RAIN      71  71 100 E7        30.08R
GOLDSBORO      CLOUDY    72  72 100 E5        30.10R
GREENVILLE     CLOUDY    72  68  88 NE5       30.13R
HAVELOCK       LGT RAIN  76  73  91 E7        30.09R FOG
KENANSVILLE    RAIN      71  69  93 CALM      30.10R
KINSTON        CLOUDY    72  70  94 NE6       30.11R FOG
NEW BERN       RAIN      75  70  83 NE8       30.10R
RICHLANDS      CLOUDY    72  70  94 E9        30.10R
ROANOKE RAPIDS NOT AVBL
ROCKY MOUNT    CLOUDY    72  67  84 NE5       30.13R
WASHINGTON     CLOUDY    69  68  94 NE3       30.12R
WHITEVILLE     LGT RAIN  72  70  95 NE5       30.05S

$$

AMZ130-135-150-152-154-156-158-170-250-252-270-ANZ085-086-088-633-658-670-011300-
MARINE OBSERVATIONS

STATION/POSITION TIME  TEMP    WIND        PRES    WAVE   SWELL
                       AIR SEA DIR/SP/G            HT/PER HT/PER
                 (UTC) (F)     (DEG/KT/KT) (MB)    (FT/S) (FT/S)
CHESAPEAKE LIGHT NOT AVBL
BUOY 44014       1200   77 78   80/ 10/ 12 1020.6    2/ 7   2/ 7
DUCK             1200   77 76   80/  9/ 10 1019.7
2E DUCK          1200                        N/A     3/ 7
OREGON INLET     1200   77 79   60/ 11/ 14 1019.7
BUOY 44095       1200      78                N/A     3/ 5
20E OREGON INLET NOT AVBL
HATTERAS CG      1200   79 80   70/  5/ 10 1019.4
DIAMOND BUOY     1200          VRB 16/ 19  1018.5    4/ 7   2/ 8
CAPE LOOKOUT     1100   80      90/ 16/ 18 1017.9
BEAUFORT LAB     1200   77 81  360/  5/  6 1018.0
30 SE NEW RIVER  1200   80 81  150/ 10/ 14 1018.0    4/ 7   3/ 7
5 SE WRIGHTSVILL 1100   74 81  120/ 12/ 16   N/A
BUOY 41002       1115   81 81  150/ 12/ 14 1019.0    4/ 7   3/ 7
BUOY 41004       1200   80 83  300/  2/  4 1015.3    4/ 6   3/ 6

$$


USA.gov is the U.S. government's official web portal to all federal, state and local government web resources and services.